| time (UTC) | temp C | wind direction | speed KPH | gust KPH | rain 1hr cm | rain 24hr cm | rain mn cm | humidity % | barometer mb |
| 20260510153046 | 30 | 133 | 0.0 | 4.8 | 0.00 | 0.03 | 0.00 | 81 | 1013.1 |
| 20260510151549 | 28 | 212 | 0.0 | 3.2 | 0.00 | 0.03 | 0.00 | 83 | 1013.2 |
| 20260510150051 | 28 | 198 | 0.0 | 3.2 | 0.00 | 0.03 | 0.00 | 84 | 1013.2 |
| 20260510144600 | 29 | 224 | 0.0 | 6.4 | 0.00 | 0.03 | 0.00 | 82 | 1013.2 |
| 20260510143042 | 28 | 147 | 0.0 | 6.4 | 0.00 | 0.03 | 0.00 | 84 | 1013.1 |
| 20260510141538 | 28 | 115 | 0.0 | 3.2 | 0.00 | 0.03 | 0.00 | 82 | 1013.0 |
| 20260510140032 | 27 | 122 | 1.6 | 4.8 | 0.00 | 0.03 | 0.00 | 88 | 1012.9 |
| 20260510134529 | 26 | 122 | 0.0 | 4.8 | 0.00 | 0.03 | 0.00 | 91 | 1012.7 |
| 20260510133025 | 25 | 124 | 0.0 | 6.4 | 0.00 | 0.03 | 0.00 | 92 | 1012.5 |
| 20260510131523 | 25 | 221 | 1.6 | 6.4 | 0.00 | 0.03 | 0.00 | 92 | 1012.1 |
| 20260510130020 | 25 | 212 | 0.0 | 1.6 | 0.00 | 0.03 | 0.00 | 92 | 1011.7 |
| 20260510124516 | 25 | 212 | 0.0 | 1.6 | 0.00 | 0.03 | 0.00 | 93 | 1011.5 |
| 20260510123014 | 24 | 212 | 0.0 | 1.6 | 0.00 | 0.03 | 0.00 | 93 | 1011.1 |
| 20260510121511 | 24 | 212 | 0.0 | 3.2 | 0.00 | 0.03 | 0.00 | 93 | 1010.8 |
| 20260510120008 | 24 | 207 | 0.0 | 3.2 | 0.00 | 0.03 | 0.00 | 93 | 1010.7 |
| 20260510114507 | 24 | 197 | 0.0 | 4.8 | 0.00 | 0.03 | 0.00 | 94 | 1010.6 |
| 20260510113003 | 24 | 212 | 0.0 | 6.4 | 0.00 | 0.03 | 0.00 | 93 | 1010.2 |
| 20260510111502 | 24 | 203 | 0.0 | 4.8 | 0.00 | 0.03 | 0.00 | 93 | 1010.1 |
| 20260510110003 | 24 | 164 | 0.0 | 4.8 | 0.00 | 0.03 | 0.00 | 94 | 1009.8 |
| 20260510104502 | 23 | 191 | 1.6 | 8.0 | 0.00 | 0.03 | 0.00 | 94 | 1009.7 |
| 20260510103100 | 23 | 217 | 1.6 | 6.4 | 0.00 | 0.03 | 0.00 | 94 | 1009.6 |
| 20260510101600 | 23 | 196 | 1.6 | 6.4 | 0.00 | 0.03 | 0.00 | 94 | 1009.4 |
| 20260510100105 | 23 | 215 | 1.6 | 9.7 | 0.00 | 0.03 | 0.00 | 94 | 1009.4 |
| 20260510094559 | 23 | 202 | 1.6 | 6.4 | 0.00 | 0.03 | 0.00 | 94 | 1009.3 |
| 20260510093100 | 23 | 148 | 1.6 | 4.8 | 0.00 | 0.03 | 0.00 | 94 | 1009.4 |
| 20260510091557 | 23 | 212 | 0.0 | 4.8 | 0.00 | 0.03 | 0.00 | 94 | 1009.5 |
| 20260510090058 | 23 | 212 | 1.6 | 6.4 | 0.00 | 0.03 | 0.00 | 95 | 1009.5 |
| 20260510084556 | 23 | 204 | 0.0 | 3.2 | 0.00 | 0.03 | 0.00 | 95 | 1009.5 |
| 20260510083054 | 23 | 205 | 0.0 | 6.4 | 0.00 | 0.03 | 0.00 | 94 | 1009.4 |
| 20260510081620 | 23 | 201 | 0.0 | 6.4 | 0.00 | 0.03 | 0.00 | 94 | 1009.3 |
| 20260510080055 | 23 | 210 | 0.0 | 6.4 | 0.00 | 0.03 | 0.00 | 94 | 1009.3 |
| 20260510074554 | 23 | 210 | 0.0 | 3.2 | 0.00 | 0.03 | 0.00 | 94 | 1009.1 |
| 20260510073051 | 23 | 198 | 1.6 | 8.0 | 0.00 | 0.03 | 0.00 | 94 | 1009.2 |
| 20260510071550 | 23 | 198 | 1.6 | 4.8 | 0.00 | 0.03 | 0.00 | 94 | 1009.1 |
| 20260510070048 | 23 | 195 | 0.0 | 6.4 | 0.00 | 0.03 | 0.00 | 94 | 1009.2 |
| 20260510064546 | 23 | 197 | 1.6 | 6.4 | 0.00 | 0.03 | 0.00 | 93 | 1009.3 |
| 20260510063044 | 23 | 195 | 3.2 | 8.0 | 0.00 | 0.03 | 0.00 | 93 | 1009.5 |
| 20260510061542 | 23 | 204 | 3.2 | 8.0 | 0.00 | 0.03 | 0.00 | 92 | 1009.6 |
| 20260510060050 | 23 | 186 | 1.6 | 12.9 | 0.00 | 0.03 | 0.00 | 91 | 1009.6 |
| 20260510054539 | 24 | 201 | 1.6 | 9.7 | 0.00 | 0.03 | 0.00 | 91 | 1009.8 |
| 20260510053037 | 24 | 206 | 1.6 | 8.0 | 0.00 | 0.03 | 0.00 | 91 | 1009.8 |
| 20260510051542 | 23 | 214 | 0.0 | 4.8 | 0.00 | 0.03 | 0.00 | 93 | 1010.1 |
| 20260510050033 | 24 | 159 | 0.0 | 3.2 | 0.00 | 0.03 | 0.00 | 93 | 1010.2 |
| 20260510044536 | 24 | 238 | 0.0 | 4.8 | 0.00 | 0.03 | 0.03 | 93 | 1010.2 |
| 20260510043035 | 24 | 281 | 0.0 | 4.8 | 0.00 | 0.03 | 0.03 | 93 | 1010.5 |
| 20260510041531 | 24 | 113 | 0.0 | 4.8 | 0.00 | 0.03 | 0.03 | 93 | 1010.5 |
| 20260510040030 | 24 | 226 | 0.0 | 1.6 | 0.00 | 0.03 | 0.03 | 93 | 1010.6 |
| 20260510034529 | 24 | 231 | 0.0 | 11.3 | 0.00 | 0.03 | 0.03 | 93 | 1010.0 |
| 20260510033027 | 25 | 133 | 0.0 | 3.2 | 0.00 | 0.03 | 0.03 | 93 | 1010.3 |
| 20260510031538 | 25 | 140 | 0.0 | 6.4 | 0.00 | 0.03 | 0.03 | 93 | 1010.3 |
| 20260510030024 | 24 | 99 | 1.6 | 6.4 | 0.00 | 0.03 | 0.03 | 93 | 1010.1 |
| 20260510024521 | 24 | 88 | 0.0 | 4.8 | 0.03 | 0.03 | 0.03 | 93 | 1009.7 |
| 20260510023036 | 24 | 304 | 0.0 | 3.2 | 0.03 | 0.03 | 0.03 | 93 | 1009.6 |
| 20260510021519 | 24 | 96 | 0.0 | 1.6 | 0.03 | 0.03 | 0.03 | 90 | 1009.4 |
| 20260510020016 | 24 | 207 | 0.0 | 3.2 | 0.03 | 0.03 | 0.03 | 88 | 1008.6 |
| 20260510014516 | 25 | 219 | 1.6 | 6.4 | 0.00 | 0.00 | 0.00 | 86 | 1008.2 |
| 20260510013015 | 26 | 211 | 0.0 | 4.8 | 0.00 | 0.00 | 0.00 | 84 | 1008.1 |
| 20260510011521 | 26 | 207 | 0.0 | 9.7 | 0.00 | 0.00 | 0.00 | 82 | 1007.8 |
| 20260510010020 | 27 | 205 | 1.6 | 6.4 | 0.00 | 0.00 | 0.00 | 80 | 1007.2 |
| 20260510004513 | 27 | 192 | 3.2 | 11.3 | 0.00 | 0.00 | 0.00 | 78 | 1007.3 |
| 20260510003014 | 28 | 226 | 3.2 | 17.7 | 0.00 | 0.00 | 0.00 | 76 | 1007.2 |
| 20260510001515 | 29 | 214 | 3.2 | 11.3 | 0.00 | 0.00 | 0.00 | 70 | 1007.1 |
| 20260510000011 | 31 | 200 | 1.6 | 8.0 | 0.00 | 0.00 | 0.00 | 62 | 1006.8 |
| 20260509234511 | 31 | 208 | 1.6 | 9.7 | 0.00 | 0.00 | 0.00 | 61 | 1006.6 |
| 20260509233010 | 32 | 215 | 3.2 | 11.3 | 0.00 | 0.00 | 0.00 | 60 | 1006.6 |
| 20260509231509 | 32 | 210 | 1.6 | 11.3 | 0.00 | 0.00 | 0.00 | 57 | 1006.6 |
| 20260509230008 | 33 | 203 | 1.6 | 12.9 | 0.00 | 0.00 | 0.00 | 61 | 1006.5 |
| 20260509224507 | 33 | 214 | 0.0 | 8.0 | 0.00 | 0.00 | 0.00 | 68 | 1006.4 |
| 20260509223006 | 34 | 352 | 0.0 | 6.4 | 0.00 | 0.00 | 0.00 | 69 | 1006.3 |
| 20260509221506 | 33 | 175 | 0.0 | 4.8 | 0.00 | 0.00 | 0.00 | 63 | 1006.3 |
| 20260509220004 | 34 | 139 | 0.0 | 6.4 | 0.00 | 0.00 | 0.00 | 63 | 1006.2 |
| 20260509214502 | 33 | 210 | 1.6 | 4.8 | 0.00 | 0.00 | 0.00 | 62 | 1006.2 |
| 20260509213116 | 33 | 238 | 0.0 | 3.2 | 0.00 | 0.00 | 0.00 | 69 | 1006.2 |
| 20260509211614 | 33 | 276 | 0.0 | 4.8 | 0.00 | 0.00 | 0.00 | 64 | 1006.2 |
| 20260509210059 | 33 | 166 | 0.0 | 3.2 | 0.00 | 0.00 | 0.00 | 68 | 1006.2 |
| 20260509204600 | 32 | 217 | 1.6 | 4.8 | 0.00 | 0.00 | 0.00 | 65 | 1006.4 |
| 20260509203057 | 32 | 143 | 0.0 | 6.4 | 0.00 | 0.00 | 0.00 | 70 | 1006.6 |
| 20260509201547 | 32 | 172 | 0.0 | 4.8 | 0.00 | 0.00 | 0.00 | 69 | 1006.8 |
| 20260509200045 | 32 | 219 | 0.0 | 3.2 | 0.00 | 0.00 | 0.00 | 66 | 1006.9 |
| 20260509194544 | 32 | 219 | 0.0 | 8.0 | 0.00 | 0.00 | 0.00 | 72 | 1007.0 |
| 20260509193038 | 31 | 325 | 0.0 | 3.2 | 0.00 | 0.00 | 0.00 | 74 | 1007.0 |
| 20260509191536 | 31 | 357 | 1.6 | 4.8 | 0.00 | 0.00 | 0.00 | 74 | 1007.2 |
| 20260509190044 | 31 | 9 | 3.2 | 8.0 | 0.00 | 0.00 | 0.00 | 78 | 1007.1 |
| 20260509184533 | 30 | 22 | 1.6 | 6.4 | 0.00 | 0.00 | 0.00 | 75 | 1007.5 |
| 20260509183035 | 29 | 14 | 1.6 | 9.7 | 0.00 | 0.00 | 0.00 | 80 | 1007.8 |
| 20260509181529 | 29 | 338 | 4.8 | 14.5 | 0.00 | 0.00 | 0.00 | 78 | 1008.0 |
| 20260509180028 | 29 | 285 | 3.2 | 8.0 | 0.00 | 0.00 | 0.00 | 80 | 1008.2 |
| 20260509174526 | 28 | 243 | 0.0 | 3.2 | 0.00 | 0.00 | 0.00 | 80 | 1008.7 |
| 20260509173025 | 28 | 243 | 0.0 | 6.4 | 0.00 | 0.00 | 0.00 | 80 | 1008.7 |
| 20260509171524 | 28 | 200 | 0.0 | 1.6 | 0.00 | 0.00 | 0.00 | 82 | 1008.9 |
| 20260509170024 | 28 | 158 | 0.0 | 3.2 | 0.00 | 0.00 | 0.00 | 83 | 1008.9 |
| 20260509164520 | 28 | 134 | 0.0 | 3.2 | 0.00 | 0.00 | 0.00 | 85 | 1009.0 |
| 20260509163023 | 28 | 165 | 0.0 | 3.2 | 0.00 | 0.00 | 0.00 | 85 | 1008.9 |
| 20260509161519 | 28 | 209 | 0.0 | 3.2 | 0.00 | 0.00 | 0.00 | 86 | 1009.0 |
| 20260509160014 | 27 | 217 | 0.0 | 4.8 | 0.00 | 0.00 | 0.00 | 87 | 1008.4 |
| 20260509154511 | 26 | 193 | 0.0 | 9.7 | 0.00 | 0.00 | 0.00 | 89 | 1008.6 |